TimeEDT,TemperatureF,Dew PointF,Humidity,Sea Level PressureIn,VisibilityMPH,Wind Direction,Wind SpeedMPH,Gust SpeedMPH,PrecipitationIn,Events,Conditions,WindDirDegrees,DateUTC
12:15 AM,56.5,45.1,66,29.88,10.0,West,9.2,-,N/A,,Clear,280,2013-10-08 04:15:00
12:35 AM,55.8,44.8,67,29.89,10.0,WNW,5.8,-,N/A,,Clear,300,2013-10-08 04:35:00
12:55 AM,55.8,44.8,67,29.90,10.0,Calm,Calm,-,N/A,,Clear,0,2013-10-08 04:55:00
1:15 AM,52.3,45.9,79,29.91,10.0,NNW,4.6,-,N/A,,Clear,330,2013-10-08 05:15:00
1:35 AM,54.5,44.8,70,29.91,10.0,West,6.9,-,N/A,,Clear,280,2013-10-08 05:35:00
1:55 AM,53.6,44.6,72,29.92,10.0,WNW,4.6,-,N/A,,Clear,300,2013-10-08 05:55:00
2:15 AM,50.2,44.6,81,29.92,10.0,Calm,Calm,-,N/A,,Clear,0,2013-10-08 06:15:00
2:35 AM,48.9,44.6,85,29.92,10.0,Calm,Calm,-,N/A,,Clear,0,2013-10-08 06:35:00
2:55 AM,48.0,45.1,90,29.93,10.0,Calm,Calm,-,N/A,,Clear,0,2013-10-08 06:55:00
3:15 AM,46.4,44.1,92,29.93,10.0,Calm,Calm,-,N/A,,Clear,0,2013-10-08 07:15:00
3:35 AM,47.3,45.1,92,29.94,10.0,WNW,3.5,-,N/A,,Clear,300,2013-10-08 07:35:00
3:55 AM,48.4,44.4,86,29.96,10.0,West,4.6,-,N/A,,Clear,280,2013-10-08 07:55:00
4:15 AM,50.0,44.6,82,29.97,10.0,WNW,4.6,-,N/A,,Clear,290,2013-10-08 08:15:00
4:35 AM,50.9,44.2,78,29.99,10.0,WNW,3.5,-,N/A,,Scattered Clouds,300,2013-10-08 08:35:00
4:55 AM,49.5,44.1,82,30.00,10.0,Calm,Calm,-,N/A,,Clear,0,2013-10-08 08:55:00
5:15 AM,46.4,43.7,90,30.01,10.0,Calm,Calm,-,N/A,,Scattered Clouds,0,2013-10-08 09:15:00
5:35 AM,45.7,43.9,93,30.02,10.0,Calm,Calm,-,N/A,,Mostly Cloudy,0,2013-10-08 09:35:00
5:55 AM,47.7,44.8,90,30.04,10.0,WNW,3.5,-,N/A,,Scattered Clouds,300,2013-10-08 09:55:00
6:15 AM,49.6,42.4,76,30.05,10.0,Calm,Calm,-,N/A,,Clear,0,2013-10-08 10:15:00
6:35 AM,49.3,42.1,76,30.06,10.0,Calm,Calm,-,N/A,,Clear,0,2013-10-08 10:35:00
6:55 AM,49.3,41.2,74,30.07,10.0,Calm,Calm,-,N/A,,Clear,0,2013-10-08 10:55:00
7:15 AM,48.4,40.3,74,30.09,10.0,Calm,Calm,-,N/A,,Clear,0,2013-10-08 11:15:00
7:35 AM,49.1,40.1,71,30.10,10.0,West,4.6,-,N/A,,Scattered Clouds,280,2013-10-08 11:35:00
7:55 AM,50.0,40.5,70,30.12,10.0,West,4.6,-,N/A,,Mostly Cloudy,270,2013-10-08 11:55:00
8:15 AM,50.2,41.2,71,30.13,10.0,WNW,4.6,-,N/A,,Overcast,290,2013-10-08 12:15:00
8:35 AM,50.5,41.2,70,30.14,10.0,WNW,5.8,-,N/A,,Overcast,290,2013-10-08 12:35:00
8:55 AM,52.3,41.4,66,30.15,10.0,NW,6.9,-,N/A,,Overcast,310,2013-10-08 12:55:00
9:15 AM,52.9,40.1,62,30.16,10.0,WNW,10.4,-,N/A,,Scattered Clouds,300,2013-10-08 13:15:00
9:35 AM,54.0,40.3,60,30.17,10.0,WNW,10.4,19.6,N/A,,Mostly Cloudy,300,2013-10-08 13:35:00
9:55 AM,53.8,39.7,59,30.18,10.0,NW,11.5,18.4,N/A,,Mostly Cloudy,310,2013-10-08 13:55:00
10:15 AM,53.6,39.0,58,30.18,10.0,NW,15.0,21.9,N/A,,Scattered Clouds,310,2013-10-08 14:15:00
10:35 AM,53.6,39.2,58,30.20,10.0,NW,13.8,18.4,N/A,,Clear,310,2013-10-08 14:35:00
10:55 AM,52.9,37.6,56,30.21,10.0,NNW,12.7,17.3,N/A,,Clear,330,2013-10-08 14:55:00
11:15 AM,53.8,37.9,55,30.21,10.0,NW,10.4,-,N/A,,Scattered Clouds,320,2013-10-08 15:15:00
11:35 AM,54.7,38.3,54,30.21,10.0,NW,8.1,-,N/A,,Clear,320,2013-10-08 15:35:00
11:55 AM,55.6,37.2,50,30.22,10.0,NW,8.1,-,N/A,,Clear,310,2013-10-08 15:55:00
12:15 PM,55.4,36.7,49,30.23,10.0,NNW,6.9,-,N/A,,Clear,340,2013-10-08 16:15:00
12:35 PM,56.5,36.7,48,30.23,10.0,NNW,6.9,-,N/A,,Clear,340,2013-10-08 16:35:00
12:55 PM,57.0,36.7,47,30.23,10.0,Calm,Calm,-,N/A,,Scattered Clouds,0,2013-10-08 16:55:00
1:15 PM,58.3,37.0,45,30.23,10.0,WNW,9.2,-,N/A,,Scattered Clouds,300,2013-10-08 17:15:00
1:35 PM,58.8,36.7,44,30.23,10.0,WNW,8.1,19.6,N/A,,Scattered Clouds,300,2013-10-08 17:35:00
1:55 PM,59.0,36.5,43,30.24,10.0,West,10.4,16.1,N/A,,Clear,280,2013-10-08 17:55:00
2:15 PM,59.4,36.3,42,30.24,10.0,WNW,12.7,18.4,N/A,,Clear,300,2013-10-08 18:15:00
2:35 PM,59.4,34.3,39,30.24,10.0,WNW,9.2,18.4,N/A,,Clear,300,2013-10-08 18:35:00
2:55 PM,59.7,35.8,41,30.24,10.0,NW,12.7,19.6,N/A,,Clear,310,2013-10-08 18:55:00
3:15 PM,59.7,35.1,40,30.24,10.0,WNW,10.4,18.4,N/A,,Clear,300,2013-10-08 19:15:00
3:35 PM,59.9,34.2,38,30.25,10.0,West,12.7,17.3,N/A,,Clear,280,2013-10-08 19:35:00
3:55 PM,59.4,33.6,38,30.25,10.0,West,10.4,18.4,N/A,,Clear,270,2013-10-08 19:55:00
4:15 PM,59.0,34.2,39,30.26,10.0,West,9.2,20.7,N/A,,Clear,280,2013-10-08 20:15:00
4:35 PM,59.0,33.8,39,30.26,10.0,West,8.1,-,N/A,,Clear,270,2013-10-08 20:35:00
4:55 PM,58.5,33.4,39,30.26,10.0,West,6.9,-,N/A,,Clear,270,2013-10-08 20:55:00
5:15 PM,58.3,33.1,39,30.28,10.0,West,6.9,-,N/A,,Clear,270,2013-10-08 21:15:00
5:35 PM,57.4,33.1,40,30.29,10.0,West,8.1,-,N/A,,Clear,280,2013-10-08 21:35:00
5:55 PM,55.8,34.0,44,30.30,10.0,West,4.6,-,N/A,,Clear,280,2013-10-08 21:55:00
6:15 PM,53.8,35.4,50,30.30,10.0,NW,8.1,-,N/A,,Clear,310,2013-10-08 22:15:00
6:35 PM,52.3,35.4,53,30.31,10.0,WNW,4.6,-,N/A,,Clear,300,2013-10-08 22:35:00
6:55 PM,48.4,38.8,70,30.32,10.0,WNW,3.5,-,N/A,,Clear,290,2013-10-08 22:55:00
7:15 PM,47.3,37.8,69,30.32,10.0,NNW,3.5,-,N/A,,Clear,340,2013-10-08 23:15:00
7:35 PM,47.7,38.7,71,30.32,10.0,WNW,3.5,-,N/A,,Clear,300,2013-10-08 23:35:00
7:55 PM,46.2,38.5,74,30.33,10.0,Calm,Calm,-,N/A,,Clear,0,2013-10-08 23:55:00
8:15 PM,44.6,37.6,76,30.32,10.0,WNW,4.6,-,N/A,,Clear,290,2013-10-09 00:15:00
8:35 PM,43.5,38.1,81,30.33,10.0,NE,3.5,-,N/A,,Clear,40,2013-10-09 00:35:00
8:55 PM,42.1,37.2,83,30.34,10.0,NE,3.5,-,N/A,,Clear,50,2013-10-09 00:55:00
9:15 PM,41.2,37.2,86,30.34,10.0,Calm,Calm,-,N/A,,Clear,0,2013-10-09 01:15:00
9:35 PM,43.7,36.7,76,30.35,10.0,NW,5.8,-,N/A,,Clear,310,2013-10-09 01:35:00
9:55 PM,40.5,37.6,89,30.37,10.0,South,3.5,-,N/A,,Clear,170,2013-10-09 01:55:00
10:15 PM,40.1,37.8,91,30.37,10.0,WNW,3.5,-,N/A,,Clear,300,2013-10-09 02:15:00
10:35 PM,39.0,36.7,91,30.38,10.0,Calm,Calm,-,N/A,,Clear,0,2013-10-09 02:35:00
10:55 PM,38.5,37.4,96,30.38,10.0,Calm,Calm,-,N/A,,Clear,0,2013-10-09 02:55:00
11:15 PM,37.8,36.9,97,30.39,10.0,Calm,Calm,-,N/A,,Clear,0,2013-10-09 03:15:00
11:35 PM,36.7,35.8,97,30.39,10.0,Calm,Calm,-,N/A,,Clear,0,2013-10-09 03:35:00
11:55 PM,35.2,34.5,97,30.40,10.0,Calm,Calm,-,N/A,,Clear,0,2013-10-09 03:55:00